Dewpoint
-4 -4 -4 -5 -6 -8 -9 -10 -11 -10 -9 -7 -5 -4 -3 -2 -3 -2 3 4 4 1 1 2 1 -0 0 1 3 8 7 10 9 10 7 14 13 13 14 13 14 14 15 14 14
-0 -4 -5 -5 -5 -6 -8 -10 -11 -11 -10 -9 -6 -4 -3 -3 -4 -4 -1 3 4 2 1 1 1 -1 -1 0 4 5 8 7 5 6 9 14 13 12 14 13 15 15 14 15 14
2 -0 -4 -6 -5 -5 -7 -8 -10 -11 -12 -10 -8 -5 -3 -3 -5 -6 -4 0 4 3 0 -1 0 -3 -2 -2 1 5 6 4 4 3 4 12 13 13 14 14 13 14 16 16 15
2 1 -2 -6 -6 -5 -6 -7 -8 -10 -11 -12 -11 -8 -6 -5 -4 -3 -3 -2 2 2 -1 -2 -2 -3 -3 -2 -2 1 2 3 3 4 4 11 13 13 14 13 13 13 13 16 16
1 1 -0 -5 -7 -6 -5 -6 -7 -9 -10 -12 -13 -11 -9 -6 -4 -5 -4 -5 -2 -1 -3 -3 -3 -2 -3 -3 -1 -0 -2 -1 0 1 4 11 12 13 13 14 12 13 13 16 16
0 1 0 -5 -7 -7 -6 -6 -7 -7 -9 -11 -13 -13 -11 -6 -7 -6 -6 -5 -5 -6 -6 -3 -4 -3 -3 -2 -1 -1 -2 -2 -1 -0 4 8 12 12 13 13 13 15 15 15 16
0 1 -0 -4 -6 -7 -6 -6 -6 -7 -8 -10 -12 -13 -12 -8 -7 -6 -3 -2 -3 -6 -4 -3 -3 -3 -3 -3 -2 -2 -1 0 -0 -0 3 7 8 11 12 14 14 15 15 16 16
0 0 -1 -4 -4 -6 -7 -6 -7 -6 -7 -9 -11 -11 -13 -12 -10 -6 -3 -2 -2 -3 -4 -4 -4 -5 -3 -4 -2 0 1 0 -0 0 4 4 3 9 12 14 14 15 15 16 16
-0 -0 -2 -4 -3 -6 -7 -7 -7 -6 -6 -8 -10 -11 -15 -16 -12 -6 -4 -4 -5 -6 -6 -4 -5 -5 -4 -3 -1 -1 -1 -1 -2 -3 4 4 5 10 13 14 14 15 15 15 16
-0 -0 -1 -3 -3 -6 -7 -7 -6 -5 -6 -8 -10 -5 -14 -7 -11 -7 -4 -6 -7 -8 -5 -5 -5 -5 -5 -2 2 -1 -3 -3 -1 -2 -1 4 6 10 13 14 14 15 15 15 15
-0 1 0 -2 -3 -7 -7 -7 -6 -4 -5 -13 -14 -6 -4 -7 -7 -8 -5 -7 -8 -7 -4 -5 -4 -4 -5 -5 -3 -4 -3 -2 -3 -2 3 7 7 9 11 12 12 11 11 13 15
-0 1 1 -1 -5 -8 -8 -6 -2 -3 -3 -3 -10 -14 -13 -8 -5 -8 -8 -7 -8 -4 -5 -4 -1 -5 -6 -5 -5 -4 -3 -4 -3 1 3 8 8 9 9 9 10 9 9 8 10
-0 1 1 -1 -5 -8 -8 -3 0 -1 -3 -3 -2 -3 -5 -5 -6 -7 -8 -8 -6 -4 -4 -3 -5 -6 -5 -5 -4 -4 -4 -4 -4 -2 6 6 7 9 8 9 10 10 11 11 13
0 1 2 -3 -6 -8 -8 -6 -1 -1 -3 -5 -1 -4 -5 -6 -7 -8 -8 -8 -6 -4 -4 -4 -5 -5 -6 -5 -5 -4 -6 -6 -5 -2 0 4 2 9 9 10 10 10 10 10 11
1 1 2 -5 -7 -8 -3 -1 -3 -4 -4 -3 -2 -4 -5 -8 -8 -11 -9 -7 -4 -5 -5 -4 -5 -5 -5 -5 -5 -5 -8 -6 -3 -2 -0 4 5 7 9 9 9 8 9 9 11
2 1 1 -1 -6 1 3 -4 -2 -3 -2 -1 -5 -4 -7 -9 -8 -8 -9 -8 -6 -5 -5 -5 -6 -7 -6 -6 -7 -7 -5 -3 -1 -1 2 4 5 4 7 9 9 8 10 10 11
2 -2 -2 -3 -0 3 0 -3 -1 -3 -5 -3 -6 -6 -6 -7 -8 -8 -7 -6 -5 -3 -3 -5 -6 -6 -7 -6 -6 -6 -5 -3 0 1 3 2 7 5 4 8 9 9 10 10 11
2 -1 -5 -3 2 2 -2 0 1 -5 -2 -5 -8 -8 -5 -7 -6 -7 -6 -6 -6 -6 -4 -3 -0 -2 -3 -4 -2 -4 -5 -2 3 2 2 5 6 5 6 7 10 10 10 10 11
2 2 -6 -4 3 2 1 0 -2 -1 1 -4 -7 -7 -5 -7 -6 -6 -5 -6 -7 -7 -3 -2 -0 -3 -3 -5 -5 -3 -2 -5 -0 3 5 6 7 5 9 9 9 8 10 10 9
3 1 -5 -4 2 2 1 1 1 -1 1 2 -3 -5 -4 -5 -4 -4 -4 -6 -7 -7 -8 -4 0 -2 -2 -2 -1 -2 -3 2 2 6 6 5 9 6 8 9 8 8 9 9 11
6 3 -3 -0 1 2 3 2 2 1 2 1 4 -4 -5 -4 -4 -4 -4 -6 -8 -7 -8 -5 -3 1 -0 2 2 1 2 2 2 3 5 5 4 7 9 8 9 9 9 13 14
7 6 1 3 3 4 3 3 2 1 0 -0 1 -2 -4 -4 -4 -4 -3 -4 -4 -7 -6 -3 -2 2 1 -2 -3 -0 2 1 3 6 6 6 3 5 9 9 8 9 12 15 16
7 5 3 2 3 4 3 1 1 1 0 3 1 -0 -4 -3 1 -3 -2 -0 -3 -4 -3 -1 1 3 2 -1 -0 2 1 0 0 1 7 5 2 7 9 9 10 9 15 16 16
8 7 4 3 2 2 3 3 2 1 1 4 4 1 2 2 3 4 2 0 1 2 -0 -2 -1 3 3 3 2 3 2 1 0 2 2 2 1 2 8 10 9 13 16 16 15
6 8 6 6 5 3 2 3 4 6 4 4 5 4 3 4 4 3 1 -1 -2 1 -0 -0 3 2 1 1 1 2 2 2 3 3 4 4 4 4 9 10 9 15 15 14 14
6 7 6 6 7 8 7 8 6 4 5 4 4 4 4 5 4 3 2 3 1 -1 0 -1 5 4 3 1 2 3 2 2 5 6 3 6 8 10 10 10 12 15 14 14 14
4 7 7 7 7 5 5 5 4 4 4 3 3 3 3 3 2 2 1 1 -0 2 1 2 4 4 4 3 3 2 2 4 10 12 10 9 10 12 12 12 14 14 13 14 14
Wind_Speed
9 8 8 8 9 9 9 9 9 8 8 8 8 7 7 7 8 9 8 3 2 2 4 6 5 10 4 2 1 1 2 3 1 5 2 7 7 4 3 8 5 6 3 9 22
10 9 9 9 9 9 10 10 10 9 9 8 8 8 8 8 9 11 7 7 6 4 4 4 5 8 3 2 2 1 1 3 2 2 3 5 6 5 5 7 5 7 7 13 25
12 11 10 10 10 9 10 10 10 10 10 9 8 8 8 8 9 2 4 7 7 5 3 3 5 4 2 1 2 3 3 4 3 7 3 5 6 4 4 7 12 17 17 22 28
14 13 12 11 10 10 10 10 10 9 10 9 9 8 8 6 3 4 4 4 6 5 3 1 3 2 2 1 1 3 6 4 7 4 4 7 5 6 12 4 3 12 16 23 29
15 14 13 11 10 9 9 9 9 9 9 9 9 8 7 6 12 6 2 2 5 6 4 2 6 3 2 4 4 2 7 11 11 11 4 8 7 7 8 9 7 12 16 22 27
17 15 14 11 9 9 8 8 8 8 8 8 8 8 7 6 8 10 6 4 5 6 4 5 4 6 3 2 3 6 12 17 9 8 5 7 4 5 2 3 6 15 18 21 26
19 16 13 10 7 7 7 7 7 7 7 7 7 8 10 14 6 5 6 7 6 5 6 4 3 5 5 2 8 7 7 7 4 5 3 3 5 3 3 7 11 14 16 19 23
20 16 13 9 6 6 7 7 6 6 6 6 6 7 8 6 14 9 6 5 3 2 2 2 3 3 2 6 4 3 2 5 2 7 3 4 10 3 5 8 11 13 16 19 23
21 17 13 8 5 5 6 6 5 5 5 5 5 5 6 5 10 11 9 7 4 1 2 2 4 3 2 2 1 6 4 5 8 7 2 4 5 4 5 9 10 11 13 16 19
22 18 12 7 4 5 6 5 5 5 6 5 6 2 5 2 8 11 13 8 2 1 6 2 4 2 1 1 2 3 5 6 6 3 5 3 8 4 2 6 8 8 12 16 19
23 17 11 5 4 7 8 7 3 3 10 7 3 2 4 6 9 13 12 6 2 2 4 3 2 2 3 2 2 3 5 9 6 3 0 2 5 3 0 5 7 9 12 16 21
22 15 9 3 4 8 10 4 3 2 4 10 15 12 10 6 4 10 13 8 3 3 2 3 8 3 3 4 3 4 8 7 7 3 2 3 7 3 3 2 5 9 15 17 18
22 13 7 2 5 9 11 6 2 3 2 2 5 7 4 9 5 13 16 8 4 4 3 6 2 4 4 1 4 5 6 5 5 3 4 1 5 1 1 4 6 5 8 8 11
21 10 5 2 5 8 9 9 3 4 2 2 3 3 7 7 3 14 16 8 2 5 4 2 0 4 3 5 6 4 9 8 6 1 2 3 4 1 2 8 9 10 11 12 13
19 7 4 5 2 9 8 6 4 4 2 3 3 3 9 4 9 8 15 8 6 5 4 3 4 6 6 5 8 2 1 1 1 2 3 3 3 1 2 6 9 8 12 13 14
15 6 5 6 7 9 5 8 6 2 3 4 4 6 6 1 2 5 5 5 3 3 1 8 3 4 4 1 7 3 1 1 2 1 1 2 2 1 3 3 4 5 11 12 15
10 3 5 7 11 5 10 10 2 2 1 5 4 6 8 5 4 4 8 9 5 4 6 2 7 3 5 5 4 4 3 2 3 1 2 0 3 3 2 5 1 5 8 9 12
7 2 5 11 12 8 14 2 2 0 3 2 4 8 9 7 3 3 8 8 3 3 2 5 6 5 5 6 3 6 6 4 2 2 3 1 2 2 1 3 1 7 7 4 8
5 1 5 15 13 11 4 2 2 4 1 3 5 7 4 5 3 4 7 10 10 12 4 4 2 1 1 2 3 5 4 2 4 1 3 2 4 3 1 4 4 3 6 1 8
1 5 6 17 12 8 1 2 3 4 4 1 6 4 7 9 7 7 7 5 7 15 16 2 2 1 3 2 11 3 9 3 1 2 3 1 4 5 3 7 7 7 6 6 7
4 4 8 15 10 3 3 4 4 7 3 2 2 6 5 7 9 6 6 2 5 6 14 6 2 3 2 4 1 3 3 5 2 2 3 3 3 3 4 5 9 6 6 7 8
2 3 13 11 2 1 3 3 3 6 6 7 3 4 7 11 8 8 6 3 6 13 11 6 2 0 4 2 3 2 3 1 2 3 1 2 4 2 4 3 8 6 6 7 10
3 5 11 4 3 3 3 4 6 4 2 1 3 6 4 7 4 6 5 0 11 7 10 10 3 5 3 4 2 3 3 3 3 1 4 4 5 2 5 8 4 5 6 9 12
1 2 3 3 2 2 1 3 4 4 5 2 3 4 4 3 2 7 6 2 6 4 9 6 3 2 3 3 3 3 2 3 4 4 3 8 11 5 5 6 4 4 7 10 12
4 2 1 3 4 3 1 3 3 4 2 0 3 2 5 4 3 4 3 5 5 7 4 1 3 2 4 7 3 3 5 6 8 5 6 1 5 8 7 3 5 6 7 11 12
3 2 2 1 1 3 3 3 3 2 2 1 5 7 7 5 1 7 5 3 2 3 3 1 4 3 4 4 3 5 6 7 5 4 8 6 6 2 1 4 7 8 8 10 11
8 4 2 1 0 2 2 3 3 4 3 5 4 10 14 5 6 7 7 7 4 3 3 2 7 5 3 2 1 7 9 7 3 3 2 4 1 2 3 6 8 8 8 10 9
Wind_Direction
340 322 304 289 277 270 264 258 255 256 258 262 273 285 292 294 291 282 274 243 208 222 343 8 14 346 19 63 137 339 321 302 130 190 244 175 198 135 133 138 161 163 141 171 164
342 328 310 292 279 270 263 258 255 252 254 258 264 276 287 297 291 271 265 245 240 246 317 352 10 1 25 75 134 244 296 258 247 225 248 188 204 169 162 144 173 168 173 173 170
342 333 318 298 281 270 262 258 254 250 250 252 256 266 280 299 312 218 198 227 226 235 296 360 24 13 73 39 182 181 247 317 213 229 231 171 221 205 198 199 201 197 174 170 175
342 333 322 302 280 269 263 257 253 250 249 248 250 255 265 279 239 161 99 187 195 215 238 53 48 64 51 0 289 238 272 242 312 295 166 166 177 232 233 280 328 209 193 176 180
341 333 325 307 281 266 259 255 251 247 247 246 248 248 256 252 252 256 294 107 157 178 207 142 58 70 24 334 342 322 336 316 309 278 244 145 196 210 243 243 285 181 184 184 188
339 333 326 311 280 261 256 251 248 244 244 245 246 243 243 243 249 250 271 165 158 178 163 99 65 21 82 334 339 320 319 306 305 289 205 184 202 205 88 191 186 175 185 190 193
340 333 325 312 281 260 250 244 240 236 237 240 242 244 244 242 235 211 158 148 136 147 136 109 54 23 332 341 335 323 323 320 327 298 308 179 256 239 307 166 161 180 185 193 200
340 334 325 309 281 254 238 232 229 229 230 235 239 250 248 244 239 212 172 169 165 152 130 148 48 32 28 327 357 24 21 331 357 333 10 227 259 32 234 191 182 188 192 201 206
341 334 325 306 277 238 219 214 214 218 221 227 234 229 256 225 217 198 185 169 139 127 138 165 91 68 34 9 3 34 315 341 327 343 155 181 307 321 234 208 202 198 208 214 215
343 337 328 303 266 208 192 188 195 210 210 216 224 250 245 144 184 196 195 187 148 38 114 160 85 94 91 288 293 324 324 320 291 358 335 250 265 285 252 217 216 224 229 232 226
344 339 333 305 235 189 177 156 160 220 213 202 205 195 140 44 181 189 197 199 179 100 166 36 200 274 310 257 203 247 288 307 293 300 318 295 252 12 267 248 251 246 259 260 253
344 339 336 301 206 187 178 177 180 164 287 241 241 243 254 287 146 176 195 172 161 161 148 159 233 229 258 253 246 276 296 286 283 1 296 227 254 343 5 285 281 293 284 282 281
343 336 333 291 196 189 186 183 192 296 284 266 229 236 215 171 177 169 168 154 145 157 146 198 121 132 268 273 280 246 238 261 266 24 66 278 262 95 348 285 295 289 313 319 303
341 330 318 254 189 188 191 204 243 263 340 145 202 177 171 150 133 168 171 162 129 177 148 234 191 239 260 258 223 256 215 244 268 242 312 317 299 326 248 291 297 301 318 340 341
338 318 271 199 204 162 168 199 213 159 142 131 151 177 166 177 138 168 167 169 159 152 183 175 195 203 237 239 186 295 181 256 311 167 203 31 269 105 255 255 264 311 334 341 340
335 309 235 203 165 157 169 168 144 235 131 150 139 162 156 131 99 125 158 137 134 153 235 257 209 245 239 143 194 114 180 83 144 194 188 1 298 26 213 245 254 7 348 344 348
331 304 207 174 167 167 158 148 177 222 9 162 165 172 170 157 140 149 168 189 197 179 227 284 248 230 203 239 158 190 229 264 196 10 2 61 240 297 239 229 272 318 325 323 348
327 288 193 169 159 155 152 181 198 122 226 92 123 135 186 156 158 131 151 188 187 162 148 214 182 192 168 230 212 187 235 232 205 265 355 182 271 15 164 235 307 291 290 262 347
317 243 173 173 160 159 171 195 241 208 334 140 128 151 153 177 180 167 188 201 202 198 222 191 232 284 337 170 214 146 174 69 114 112 254 339 262 238 172 216 189 94 106 69 342
81 121 140 165 164 161 168 264 253 233 314 240 213 180 161 176 181 198 179 171 198 196 212 193 276 50 137 140 56 255 136 170 134 218 274 208 283 263 46 102 143 107 44 357 356
130 103 123 148 150 163 212 248 277 264 241 268 250 180 170 165 196 182 191 188 208 172 190 181 256 122 200 22 111 146 129 62 99 321 261 275 271 200 236 120 124 100 36 13 39
103 117 151 148 141 46 203 218 297 271 252 256 220 221 179 172 175 204 211 253 178 154 174 179 212 70 96 328 299 52 95 127 264 182 106 322 278 196 337 108 113 68 35 65 58
61 94 163 165 184 204 254 261 246 266 269 231 240 214 180 169 156 201 189 146 163 159 156 168 211 148 181 151 119 57 55 82 108 118 208 277 281 21 94 122 82 32 62 84 70
47 130 158 206 170 174 277 267 271 258 264 255 283 165 150 147 42 165 163 133 161 129 128 129 122 226 262 89 113 169 225 206 254 241 252 243 285 311 15 141 110 67 83 89 74
15 66 154 184 205 206 230 279 286 301 228 291 198 221 157 128 110 138 154 129 101 147 78 161 117 149 135 137 170 199 241 221 233 254 247 72 268 311 341 172 134 119 100 87 75
29 14 341 293 261 190 172 234 241 275 266 11 112 83 94 91 327 165 147 152 145 125 92 57 133 150 189 177 195 242 241 240 218 227 250 271 284 327 78 142 130 134 116 90 82
14 354 356 50 137 195 194 276 264 310 73 68 96 93 70 63 70 76 70 63 61 149 108 133 148 159 224 339 246 267 256 211 217 223 262 256 37 157 123 142 141 135 122 104 97
Height
1530 1529 1529 1528 1528 1527 1528 1528 1528 1528 1529 1529 1529 1529 1529 1529 1529 1529 1529 1531 1531 1531 1531 1530 1529 1528 1527 1528 1528 1527 1528 1530 1527 1527 1520 1520 1521 1525 1526 1527 1529 1530 1531 1531 1533
1529 1528 1527 1526 1525 1525 1525 1525 1526 1527 1527 1527 1528 1528 1528 1527 1527 1526 1529 1529 1530 1530 1531 1531 1530 1528 1527 1529 1529 1529 1532 1524 1521 1519 1518 1521 1522 1524 1526 1527 1529 1529 1529 1530 1533
1527 1526 1524 1523 1523 1523 1523 1523 1524 1524 1525 1525 1526 1526 1526 1526 1526 1525 1525 1527 1528 1529 1530 1530 1529 1529 1529 1529 1530 1530 1529 1522 1518 1518 1518 1521 1522 1524 1524 1525 1523 1522 1525 1528 1531
1526 1524 1522 1521 1520 1520 1520 1521 1521 1522 1523 1523 1524 1524 1525 1526 1528 1524 1524 1525 1527 1528 1529 1529 1529 1529 1529 1528 1529 1529 1523 1522 1519 1519 1518 1519 1520 1521 1521 1521 1521 1522 1525 1528 1531
1524 1521 1519 1518 1517 1517 1518 1518 1519 1520 1521 1521 1522 1523 1524 1525 1523 1523 1523 1524 1526 1527 1528 1528 1528 1528 1528 1527 1526 1525 1523 1521 1519 1517 1518 1518 1518 1518 1518 1520 1521 1523 1525 1528 1532
1522 1519 1517 1515 1514 1514 1515 1516 1517 1518 1519 1520 1520 1521 1523 1524 1520 1521 1522 1523 1525 1526 1526 1526 1527 1527 1527 1527 1527 1525 1523 1520 1517 1515 1516 1517 1517 1519 1518 1517 1519 1522 1524 1527 1530
1519 1516 1514 1512 1512 1512 1513 1514 1515 1516 1517 1518 1519 1519 1520 1518 1518 1520 1521 1523 1524 1525 1525 1525 1526 1527 1527 1525 1526 1525 1522 1518 1517 1515 1515 1517 1517 1518 1517 1517 1518 1520 1524 1526 1529
1517 1514 1511 1510 1509 1510 1511 1512 1513 1514 1515 1516 1517 1518 1516 1515 1516 1518 1520 1522 1523 1524 1524 1524 1525 1526 1527 1526 1526 1526 1526 1529 1517 1516 1515 1518 1516 1518 1516 1517 1517 1519 1522 1524 1526
1514 1511 1509 1507 1507 1508 1509 1510 1511 1513 1514 1515 1516 1517 1513 1512 1514 1517 1519 1521 1523 1523 1523 1524 1524 1527 1528 1528 1528 1531 1538 1532 1521 1516 1516 1517 1518 1518 1515 1517 1517 1519 1522 1524 1525
1512 1508 1506 1505 1505 1506 1507 1509 1510 1512 1513 1514 1515 1518 1511 1511 1512 1515 1518 1520 1522 1522 1523 1524 1525 1526 1529 1528 1543 1541 1537 1531 1532 1518 1517 1518 1517 1516 1518 1519 1519 1520 1521 1521 1523
1509 1506 1504 1503 1503 1504 1506 1509 1513 1514 1511 1508 1509 1508 1509 1510 1511 1514 1517 1519 1521 1522 1522 1524 1525 1530 1530 1532 1533 1534 1535 1535 1522 1519 1519 1521 1517 1517 1519 1519 1519 1519 1518 1519 1520
1508 1504 1502 1501 1502 1503 1505 1507 1507 1509 1508 1505 1506 1507 1507 1509 1511 1513 1516 1520 1521 1523 1525 1525 1527 1526 1529 1530 1531 1531 1533 1527 1521 1519 1519 1523 1517 1520 1520 1519 1519 1519 1518 1517 1516
1506 1503 1501 1500 1501 1503 1504 1506 1506 1506 1507 1504 1504 1504 1506 1508 1509 1512 1515 1518 1520 1523 1523 1524 1525 1526 1528 1526 1528 1527 1529 1525 1525 1521 1523 1524 1520 1521 1519 1518 1517 1517 1517 1516 1514
1503 1501 1500 1499 1503 1501 1503 1505 1506 1506 1507 1504 1503 1503 1505 1506 1509 1510 1514 1518 1520 1521 1523 1523 1522 1524 1524 1527 1525 1526 1518 1521 1521 1525 1531 1526 1531 1523 1519 1516 1515 1514 1514 1514 1513
1501 1499 1498 1499 1499 1501 1503 1504 1505 1507 1519 1503 1503 1503 1503 1506 1507 1510 1512 1515 1517 1519 1521 1522 1522 1523 1525 1520 1521 1517 1517 1519 1520 1524 1527 1529 1532 1517 1523 1517 1512 1514 1514 1513 1512
1498 1496 1496 1498 1499 1501 1502 1503 1506 1511 1519 1502 1500 1501 1503 1505 1506 1508 1512 1514 1516 1518 1520 1519 1520 1519 1514 1514 1516 1517 1517 1521 1524 1522 1530 1534 1536 1514 1515 1514 1511 1514 1514 1513 1511
1496 1495 1495 1497 1500 1500 1501 1504 1509 1512 1499 1502 1499 1500 1501 1505 1506 1507 1511 1514 1517 1526 1523 1516 1511 1511 1512 1514 1515 1516 1518 1532 1535 1533 1536 1533 1535 1513 1509 1511 1513 1514 1515 1513 1512
1495 1494 1494 1496 1499 1500 1502 1504 1514 1501 1498 1493 1496 1499 1502 1502 1506 1508 1511 1515 1517 1517 1522 1522 1523 1508 1508 1507 1508 1513 1513 1529 1551 1543 1532 1530 1526 1507 1511 1513 1515 1514 1514 1513 1512
1493 1493 1493 1495 1498 1500 1504 1507 1501 1498 1492 1492 1495 1499 1503 1501 1502 1506 1508 1508 1507 1511 1521 1522 1516 1505 1506 1505 1507 1518 1518 1518 1530 1543 1536 1529 1516 1506 1512 1513 1515 1515 1513 1514 1513
1491 1492 1493 1495 1498 1501 1503 1509 1500 1495 1492 1490 1495 1492 1500 1500 1503 1504 1507 1501 1503 1505 1507 1513 1519 1506 1505 1506 1508 1506 1513 1521 1523 1543 1546 1530 1529 1515 1509 1511 1513 1515 1514 1514 1511
1492 1493 1495 1497 1499 1501 1503 1502 1498 1492 1493 1491 1491 1493 1492 1497 1496 1501 1501 1497 1498 1504 1506 1507 1513 1510 1505 1510 1512 1511 1513 1523 1521 1529 1533 1538 1524 1506 1508 1510 1512 1515 1514 1513 1512
1491 1493 1496 1498 1501 1504 1501 1499 1496 1490 1490 1488 1489 1488 1487 1492 1495 1497 1497 1499 1497 1498 1505 1507 1508 1514 1515 1513 1513 1509 1515 1514 1521 1533 1536 1534 1521 1506 1511 1514 1515 1515 1514 1513 1513
1492 1494 1497 1498 1499 1500 1499 1496 1494 1488 1486 1486 1485 1484 1486 1488 1496 1495 1495 1494 1495 1497 1498 1503 1511 1520 1519 1514 1512 1513 1515 1519 1519 1522 1531 1530 1517 1509 1512 1515 1517 1516 1515 1513 1513
1494 1494 1498 1498 1498 1497 1497 1493 1490 1486 1485 1485 1484 1483 1484 1487 1489 1492 1492 1493 1494 1494 1496 1499 1509 1508 1518 1517 1515 1519 1516 1517 1516 1522 1519 1518 1510 1504 1511 1514 1516 1516 1515 1514 1514
1494 1496 1496 1494 1495 1497 1497 1493 1491 1488 1484 1483 1483 1481 1478 1488 1489 1491 1491 1492 1495 1496 1498 1498 1510 1513 1514 1513 1515 1515 1515 1516 1519 1515 1520 1514 1517 1508 1512 1513 1514 1516 1516 1515 1515
1497 1497 1495 1495 1495 1495 1496 1490 1488 1484 1485 1482 1482 1481 1478 1484 1486 1489 1488 1489 1492 1496 1496 1501 1515 1514 1516 1515 1515 1516 1511 1510 1513 1514 1515 1513 1510 1512 1514 1514 1515 1516 1516 1516 1516
1499 1497 1497 1495 1494 1493 1491 1490 1485 1485 1484 1482 1482 1479 1483 1489 1487 1489 1492 1493 1493 1495 1498 1501 1508 1512 1518 1520 1516 1519 1507 1508 1509 1510 1510 1510 1509 1512 1512 1513 1515 1516 1517 1516 1518